Home   Weather   Rottenburg am Neckar   Past weeks

Flag for Germany Past Weather in Rottenburg am Neckar, Baden-Württemberg, Germany — Yesterday and Last 2 Weeks

Now
27 °F

Passing clouds.


Feels Like: 21 °F
Forecast: 29 / 47 °F
Wind: 5 mph from Northwest

Location: Stuttgart-Echterdingen

Current Time: Dec 9, 2016 at 1:24:46 am

Latest Report: Dec 9, 2016 at 12:50 am


Visibility: N/A

Pressure: 30.45 "Hg

Humidity: 93%

Dew Point: 25 °F

Location of Rottenburg am NeckarLocation

Past Weather in Rottenburg am Neckar — Graph

°F

Rottenburg am Neckar Temperature Yesterday

Maximum temperature yesterday: 45 °F (at 1:50 pm)
Minimum temperature yesterday: 25 °F (at 4:50 am)
Average temperature yesterday: 32 °F

High & Low Weather Summary for the Past Weeks

 TemperatureHumidityPressure
High48 °F (Nov 24, 1:20 pm)100% (Nov 24, 12:20 am)30.54 "Hg (Nov 24, 12:20 am)
Low19 °F (Nov 30, 5:20 am)31% (Dec 1, 1:50 pm)29.95 "Hg (Nov 24, 5:20 am)
Average34 °F85%30.26 "Hg
* Reported Nov 24 12:20 am — Dec 9 12:20 am, Rottenburg am Neckar, Weather by CustomWeather, © 2016

Note: Actual official high and low records may vary slightly from our data, if they occured in-between our weather recording intervals... More about our weather records

Advertising

Rottenburg am Neckar Weather History for the Previous 24 Hours

Scroll right to see more
 ConditionsComfort  
Time TempWeatherWind HumidityBarometerVisibility
12:20 am
Fri, Dec 9
30 °FClear.1 mph93%30.48 "Hg10 mi
11:50 pm
Thu, Dec 8
30 °FPassing clouds.5 mph86%30.48 "HgN/A
11:20 pm30 °FPassing clouds.3 mph86%30.48 "HgN/A
10:50 pm32 °FClear.2 mph80%30.48 "Hg10 mi
10:20 pm30 °FClear.2 mph86%30.45 "Hg10 mi
9:50 pm32 °FClear.2 mph87%30.48 "Hg10 mi
9:20 pm32 °FClear.1 mph93%30.45 "Hg10 mi
8:50 pm32 °FClear.1 mph93%30.45 "Hg10 mi
8:20 pm34 °FClear.1 mph87%30.45 "Hg10 mi
7:50 pm36 °FClear.3 mph81%30.45 "Hg10 mi
7:20 pm36 °FClear.1 mph81%30.45 "Hg10 mi
6:50 pm36 °FClear.2 mph81%30.45 "Hg10 mi
6:20 pm34 °FClear.1 mph81%30.45 "Hg10 mi
5:50 pm37 °FClear.1 mph75%30.45 "Hg10 mi
5:20 pm37 °FClear.6 mph75%30.45 "Hg10 mi
4:50 pm37 °FClear.3 mph75%30.45 "Hg10 mi
4:20 pm41 °FSunny.1 mph70%30.45 "Hg10 mi
3:50 pm43 °FSunny.2 mph66%30.45 "Hg10 mi
3:20 pm43 °FSunny.1 mph66%30.45 "Hg10 mi
2:50 pm45 °FSunny.2 mph66%30.45 "Hg10 mi
2:20 pm45 °FPassing clouds.3 mph61%30.45 "HgN/A
1:50 pm45 °FSunny.3 mph66%30.45 "Hg10 mi
1:20 pm43 °FSunny.3 mph66%30.48 "Hg10 mi
12:50 pm41 °FPassing clouds.3 mph70%30.48 "HgN/A
12:20 pm39 °FPassing clouds.3 mph75%30.51 "HgN/A
11:50 am39 °FPassing clouds.3 mph75%30.51 "HgN/A
11:20 am36 °FSunny.2 mph87%30.51 "Hg10 mi
10:50 am36 °FSunny.2 mph87%30.51 "Hg10 mi
10:20 am32 °FSunny.2 mph93%30.51 "Hg10 mi
9:50 am30 °FSunny.1 mph93%30.51 "Hg10 mi
9:20 am28 °FSunny.2 mph93%30.51 "Hg10 mi
8:50 am27 °FSunny.No wind100%30.51 "Hg10 mi
8:20 am25 °FSunny.2 mph100%30.54 "Hg10 mi
7:50 am25 °FClear.1 mph100%30.54 "Hg10 mi
7:20 am25 °FClear.1 mph100%30.51 "Hg10 mi
6:50 am27 °FClear.No wind93%30.51 "Hg10 mi
6:20 am25 °FPassing clouds.1 mph100%30.51 "HgN/A
5:50 am25 °FPassing clouds.3 mph100%30.51 "HgN/A
5:20 am25 °FPassing clouds.3 mph100%30.51 "Hg4 mi
4:50 am25 °FSleet. Overcast.1 mph100%30.51 "Hg2 mi
4:20 am27 °FSleet. Overcast.2 mph93%30.51 "Hg2 mi
3:50 am27 °FSleet. Overcast.No wind100%30.51 "Hg4 mi
3:20 am27 °FSleet. Overcast.1 mph100%30.54 "Hg2 mi
2:50 am27 °FSleet. Overcast.2 mph100%30.54 "Hg1 mi
2:20 am27 °FSleet. Overcast.1 mph100%30.54 "Hg1 mi
1:50 am27 °FIce fog.5 mph100%30.54 "Hg0 mi
1:20 am27 °FSleet. Overcast.1 mph93%30.51 "Hg1 mi
Weather by CustomWeather, © 2016

See weather overviewHow to use our weather pages